RJSSRJSF

Guest
Details From RJSS - SENDAI
To RJSF - Fukushima
Flight Number -
Tags generated
Created
Modified
Stats Distance 60 nm / 111 km
Max Altitude 0 ft / 0 m
Waypoints 3
Social Downloads 0
Likes 0
Share VATSIM

Download

Looking for another format? Having issues loading an existing format? Contact us
Advertisement - Login to hide

Notes

Basic altitude profile: - Ascent Rate: 2500ft/min - Ascent Speed: 250kts - Cruise Altitude: 35000ft - Cruise Speed: 420kts - Descent Rate: 1500ft/min - Descent Speed: 250kts

Route

RJSS SDE RJSF

ID Type Via Altitude Latitude Longitude Leg Dist Tot Dist Heading (true) Name
O RJSS APT - 0 ft / 0 m 38.13873˚ 140.91825˚ - 0 nm - SENDAI
SDE VOR - 0 ft / 0 m 38.13857˚ 140.92148˚ 0 nm 0 nm 94° / 94° SENDAI VOR-DME
O RJSF APT - 0 ft / 0 m 37.22743˚ 140.42797˚ 59 nm 59 nm 203° / 203° Fukushima

Altitude Profile

Advertisement - Login to hide

RJSS

Details ICAO RJSS (SDJ)
Name SENDAI
Region Japan
Timezone Asia/Tokyo (UTC+9.0)
Stats Elevation 15 ft / 5 m (AMSL)
Location 38.138734° 140.918248°
Runways 2
Magnetic Variation 8.104° W

METAR

Not found

TAF

TAF RJSS 221712Z 2218/2400 32004KT 9999 FEW010 SCT020 TEMPO 2218/2221 4000 BR BECMG 2222/2300 15015KT TEMPO 2312/2315 4000 -SHRA BR FEW005 BKN008 BKN015 BECMG 2315/2318 04004KT TEMPO 2315/2321 2000 SHRA BR FEW002 BKN005 BKN008

Decode

Departure Runways

ID Width Length Bearing (true) Bearing (mag) Surface Threshold Offset Overrun Length
09 150 ft / 46 m 9,823 ft / 2,994 m 82.52° 90.62° Asphalt 0 ft / 0 m 200 ft / 61 m
12 150 ft / 46 m 3,932 ft / 1,199 m 117.79° 125.89° Asphalt 0 ft / 0 m 0 ft / 0 m
27 150 ft / 46 m 9,823 ft / 2,994 m 262.54° 270.64° Asphalt 0 ft / 0 m 200 ft / 61 m
30 150 ft / 46 m 3,932 ft / 1,199 m 297.80° 305.90° Asphalt 0 ft / 0 m 0 ft / 0 m

RJSF

Details ICAO RJSF (FKS)
Name Fukushima
Region Japan
Timezone Asia/Tokyo (UTC+9.0)
Stats Elevation 1,220 ft / 372 m (AMSL)
Location 37.227429° 140.427974°
Runways 1
Magnetic Variation 7.892° W

METAR

Not found

TAF

TAF RJSF 221705Z 2218/2400 18010KT 9999 FEW030 TEMPO 2309/2315 4000 -RA BR FEW005 BKN008 BKN015 BECMG 2315/2318 01004KT TEMPO 2315/2400 1500 SHRA BR FEW001 BKN003 BKN005

Decode

Destination Runways

ID Width Length Bearing (true) Bearing (mag) Surface Threshold Offset Overrun Length
01 197 ft / 60 m 8,219 ft / 2,505 m 2.19° 10.08° Asphalt 0 ft / 0 m 197 ft / 60 m
19 197 ft / 60 m 8,219 ft / 2,505 m 182.19° 190.08° Asphalt 0 ft / 0 m 197 ft / 60 m

Approach Navaids

Runway Type Ident Frequency Range Bearing (true) Bearing (mag) Slope Elevation
01 Localiser IFK 110.50 MHz 18 nm / 33 km 2.19° 10.08° - 1,220 ft / 372 m (AMSL)
01 Glidescope IFK 110.50 MHz 10 nm / 19 km 2.19° 10.08° 3.00° 1,220 ft / 372 m (AMSL)
01 DME IFK 110.50 MHz 18 nm / 33 km - - - 1,223 ft / 373 m (AMSL)